www.pogodaiklimat.ru

Погода и климат >> Архив погоды >> Пакистан >> Islamabad


АРХИВ ПОГОДЫ в Islamabad

Время (UTC), дата Ветер
(напр.,м/с)
 
Видим.   Явления Облачность Т
(С)
Тd
(С)
f
(%)
Тe
(С)
Тes
(С)
Комфортность P
(гПа)
Po
(гПа)
Тmin
(С)
Tmax
(С)
R
(мм)
R24
(мм)
S
(см)
21 18.06 штиль 0 <100 м 3/0
[As trans]
+25.0 +18.2 66 +29 +29 душно 1000.6 944.7
03 19.06 штиль 0 10 км 3/0
[Ci fib]
+29.0 +17.7 51 +33 +42 очень
душно
1000.5 945.3 +23.5
09 19.06 ЮЗ 1 10 км 1/1 1000 м
[Sc diur, vesp]
+37.0 +17.9 33 +41 +59 опасность
перегрева
997.0 943.3
12 19.06 штиль 0 50 км ?/? +33.9 +16.6 36 +37 +37 очень
душно
996.0 942.4 +38.1
15 19.06 штиль 0 н/о 3/1 1000 м
[Cu med, cong Ac trans]
+34.0 +17.6 38 +38 +38 очень
душно
996.9 942.8
18 19.06 СВ 3 н/о 4/1 1000 м
[Sc Ac trans]
+30.0 +18.0 49 +35 +35 очень
душно
999.2 944.3
21 19.06 штиль 0 <100 м 3/3 1000 м
[Sc Ac trans]
+29.0 +16.8 48 +33 +33 очень
душно
999.6 944.5
00 20.06 СВ 1 10 км 4/1 1000 м
[Sc Ac trans]
+27.5 +15.8 49 +31 +31 душно 1000.8 945.3
03 20.06 ЮВ 2 10 км 4/1
[Sc diur, vesp Ac trans]
+31.0 +16.5 42 +34 +40 душно 1001.8 946.8 +27.1
06 20.06 СВ 7 10 км 8/5 1000 м
[Cb calv Ac trans]
+35.0 +18.0 37 +39 +41 очень
душно
1001.0 947.2
09 20.06 ЮЗ 6 10 км 4/4 1000 м
[Cb calv]
+35.0 +18.0 37 +39 +43 очень
душно
999.9 945.8
12 20.06 ЮЗ 6 10 км 4/4 1000 м
[Cb calv]
+35.0 +18.0 37 +39 +40 очень
душно
999.9 945.8
15 20.06 СВ 4 н/о 6/3 1000 м
[Sc Ac trans]
+30.5 +17.8 47 +35 +35 очень
душно
1000.5 945.4
18 20.06 ЮВ 3 н/о 3/0
[As trans]
+28.0 +18.3 56 +33 +33 очень
душно
1001.2 945.8
21 20.06 штиль 0 н/о ясно +26.0 +17.6 60 +30 +30 душно 1001.8 1002.0
00 21.06 штиль 0 10 км ясно +24.5 +16.8 62 +28 +28 душно 1002.3 984.2
03 21.06 штиль 0 10 км ясно +30.0 +14.2 38 +32 +42 жарко 1002.4 947.5 +24.1
06 21.06 ЮВ 3 10 км 1/1 1000 м
[Cu med, cong]
+35.0 +15.4 31 +37 +52 опасность
солнечного
удара
1001.3 947.2
09 21.06 З 2 10 км 1/1 1000 м
[Cu med, cong]
+38.0 +17.3 30 +41 +57 опасность
перегрева
998.8 945.2
12 21.06 ЮЗ 1 10 км 4/1 1000 м
[Sc diur, vesp Ci fib]
+39.0 +15.7 25 +40 +45 очень
душно
996.1 942.9 +39.1
15 21.06 СЗ 3 <100 м мгла 9/5 1000 м
[Sc Ac trans Ci fib]
+36.0 +16.5 32 +39 +39 очень
душно
996.6 942.8
18 21.06 СВ 2 <100 м мгла 5/1 1000 м
[Sc Ac trans]
+32.0 +18.7 45 +37 +37 очень
душно
998.2 943.6
21 21.06 ЮВ 2 <100 м мгла 5/1 1000 м
[Sc Ac trans]
+30.0 +16.2 43 +33 +33 душно 998.5 943.6
00 22.06 ЮВ 2 10 км 8/8 1000 м
[]
+27.5 +15.8 49 +31 +31 душно 1000.4 945.0
03 22.06 ЮВ 2 4000 м гроза, ливневой дождь 9/5 1000 м
[Cb cap Ac trans]
+30.0 +16.2 43 +33 +35 душно 1001.0 945.9 +26.5 0.0
06 22.06 СВ 9 4000 м мгла {гроза, дождь} 9/6 1000 м
[Cb calv Ac trans]
+28.0 +17.4 53 +32 +33 душно 1002.4 947.0 1
09 22.06 СВ 13 10 км 5/1 1000 м
[Cu med, cong Ac trans]
+34.0 +16.7 36 +37 +37 очень
душно
1000.0 945.8
12 22.06 СВ 8 10 км 5/5 1000 м
[Cb calv Ac trans]
+36.0 +16.5 32 +39 +39 очень
душно
997.5 943.6 +36.0 1
15 22.06 ЮЗ 10 н/о гроза без осадков 9/5 1000 м
[Cb cap Ac trans]
+30.0 +14.2 38 +32 +32 жарко 999.5 944.6
18 22.06 СВ 2 н/о 9/9 1000 м
[]
+30.0 +14.2 38 +32 +32 жарко 999.6 944.7 1
21 22.06 штиль 0 н/о 4/0
[As trans]
+26.3 +14.9 49 +29 -43 жарко 1000.4 944.6
00 23.06 штиль 0 4000 м мгла 4/0
[Ac trans]
+24.0 +15.3 58 +27 +27 жарко 1000.7 944.6
03 23.06 СЗ 3 4000 м мгла 6/0
[Ac trans Ci fib]
+28.0 +15.5 47 +31 +36 душно 1001.0 945.6 +23.5 10
06 23.06 ЮЗ 3 10 км 4/0
[Ac trans Ci fib]
+35.0 +17.1 35 +38 +53 опасность
солнечного
удара
999.8 945.7
09 23.06 ЮЗ 4 10 км 3/1 1000 м
[Cu med, cong Ac trans]
+37.5 +16.6 29 +40 +49 очень
душно
997.3 943.7
12 23.06 В 3 10 км 5/4 1000 м
[Cu med, cong Ci fib]
+38.5 +17.0 28 +41 +43 опасность
перегрева
995.4 942.1 +39.2
15 23.06 В 4 <100 м 9/6 1000 м
[Cb calv Ac trans]
+31.5 +17.2 42 +35 +35 очень
душно
998.2 943.5
18 23.06 В 3 <100 м 1/0
[Ac trans]
+29.5 +14.5 40 +32 +32 душно 999.2 944.2
21 23.06 СВ 3 н/о 4/1 1000 м
[Sc Ac trans]
+28.0 +14.5 44 +30 +30 жарко 999.2 943.9
00 24.06 СВ 2 10 км 9/4 1000 м
[Sc Ac trans]
+27.5 +14.9 46 +30 +30 жарко 999.2 943.8
03 24.06 штиль 0 10 км 9/3 1000 м
[Sc Ac trans]
+30.0 +14.2 38 +32 +35 жарко 999.9 945.0 +27.0
06 24.06 штиль 0 4000 м мгла 9/3 1000 м
[Sc As op]
+31.5 +18.1 45 +36 +42 очень
душно
999.7 945.0
09 24.06 ЮЗ 3 4000 м 5/1 1000 м
[Sc Ac trans]
+35.0 +17.1 35 +38 +48 очень
душно
996.8 942.9
12 24.06 ЮЗ 5 10 км 3/1 1000 м
[Cu med, cong Ci fib]
+38.5 +19.9 34 +44 +46 опасность
перегрева
994.1 940.9 +39.0
18 24.06 СВ 5 н/о 3/0
[Ac trans]
+31.0 +13.5 34 +32 +32 жарко 996.6 941.9
21 24.06 СВ 3 н/о 3/0
[Ac trans]
+29.0 +13.9 40 +31 +31 жарко 996.9 941.9
00 25.06 СВ 3 10 км 3/0
[Ac trans]
+26.5 +13.6 45 +29 +29 жарко 997.3 941.7
03 25.06 В 2 10 км ясно +31.5 +14.2 35 +33 +41 жарко 997.1 942.6 +26.1
09 25.06 З 5 10 км 3/0
[Ac trans]
+40.0 +16.1 25 +42 +49 опасность
перегрева
992.4 939.5
12 25.06 штиль 0 50 км ?/? 990.1 937.3 +41.5
15 25.06 ЮВ 4 <100 м 3/0
[Ac trans]
+35.0 +12.8 26 +35 +35 очень
жарко
991.0 937.2
18 25.06 штиль 0 н/о ясно +31.0 +12.4 32 +32 +32 жарко 992.6 938.1

 

Местоположение метеостанции Islamabad (Пакистан): широта 33.62 долгота 73.10 высота над уровнем моря 508 м.

В архиве по умолчанию представлена погода в Islamabad за последнюю неделю. Архивные данные за месяц целиком и за предыдущие месяцы, начиная с января 2011 года, Вы можете получить, выбрав интересующий диапазон дат из раскрывающегося списка и нажав кнопку "Ввод!".


*Определитесь, кто Вы:
робот инопланетянин человек

Внимание! Время в таблицах - всемирное. Для получения местного времени необходимо прибавить поправку, которая в Islamabad равна 5 ч.

Смотрите также архив погоды в соседних городах и на ближайших метеорологических станциях:

Погода в Murree (Пакистан) (42 км)
Погода в Kakul (Пакистан) (64 км)
Погода в Balakor (Пакистан) (88 км)
Погода в Jhelum (Пакистан) (96 км)
Погода в Risalpur (Пакистан) (116 км)
Погода в Gulmarg (Jammu and Kashmir, Индия) (129 км)
Погода в Saidu Sharif (Пакистан) (141 км)
Погода в Kupwara (Jammu and Kashmir, Индия) (147 км)
Погода в Peshawar (Пакистан) (147 км)
Погода в Kohat (Пакистан) (155 км)

Пояснения к столбцам:

Ветер - указаны скорость ветра в м/с - средняя за 10 мин, порывы в срок и между сроками (в фигурных скобках) и направление, откуда дует ветер: С - северный, СВ - северо-восточный, В - восточный, ЮВ - юго-восточный, Ю - южный, ЮЗ - юго-западный, З - западный, СЗ - северо-западный.
Видимость - горизонтальная дальность видимости в метрах или километрах. При видимости от 1 до 10 км при отсутствии осадков обычно наблюдается дымка, при ухудшении видимости до 1 км и менее - туман. В сухую погоду видимость может ухудшаться дымом, пылью или мглою.
Явления - указаны атмосферные явления, наблюдавшиеся в срок или в последний час перед сроком; фигурными скобками обозначены явления, наблюдавшиеся между сроками (за 1-3 часа до срока); квадратными скобками обозначены град или гололедные отложения с указанием их диаметра в мм.
Облачность - указаны через наклонную черту общая и нижняя облачность в баллах и высота нижней границы облаков в метрах; квадратными скобками обозначены формы облаков: Ci - перистые, Cs - перисто-слоистые, Cc - перисто-кучевые, Ac - высококучевые, As - высокослоистые, Sc - слоисто-кучевые, Ns - слоисто-дождевые, Cu - кучевые, Cb - кучево-дождевые. Подробнее классификацию облаков см. в Атласе облаков (PDF).
T - Температура воздуха - температура, измеренная на высоте 2 м над землей.
Td - Температура точки росы - температура, при понижении до которой содержащийся в воздухе водяной пар достигнет насыщения.
f - Относительная влажность воздуха - влажноcть воздуха, измеренная на высоте 2 м над землей.
Te - Эффективная температура - температура, которую ощущает одетый по сезону человек в тени. Характеристика душности погоды. При расчете учитывается влияние влажности воздуха и скорости ветра на теплоощущения человека.
Tes - Эффективная температура на солнце - температура, которую ощущает человек, с поправкой на солнечный нагрев. Характеристика знойности погоды. Зависит от высоты солнца над горизонтом, облачности и скорости ветра. Ночью, в пасмурную погоду, а также при ветре 12 м/с и более поправка равна нулю.
P - Атмосферное давление - приведенное к уровню моря атмосферное давление.
Po - Атмосферное давление - измеренное на уровне метеостанции атмосферное давление.
Tmin - Минимальная температура - минимум температуры воздуха на высоте 2 м над землей.
Tmax - Максимальная температура - максимум температуры воздуха на высоте 2 м над землей.
R - Количество осадков - Количество выпавших осадков за период времени, мм. При наведении курсора мыши на число - период времени, за который выпало указанное количество осадков.
R24 - Количество осадков - Количество выпавших осадков за 24 часа, мм.
S - Снежный покров - Высота снежного покрова, см. При наведении курсора мыши на число - состояние снежного покрова и степень покрытия местности в баллах.